Location: Unspecified
(50.7693°N, 0.0000°E)
Time: 06:26:24
(UTC+00:00)

Transit 2A - Pass Details

Date: 03 July 2019
Orbit: 594 x 965 km, 66.7° (Epoch: 15 July)

Event Time Altitude Azimuth Distance (km) Brightness Sun altitude
Rises 21:01:49 0° 190° (S) 3,634 9.1 -6.1°
Reaches altitude 10° 21:04:30 10° 184° (S) 2,696 8.4 -6.3°
Maximum altitude 21:10:25 42° 116° (ESE) 1,327 6.8 -6.9°
Drops below altitude 10° 21:16:10 10° 47° (NE) 2,621 8.8 -7.5°
Sets 21:18:45 0° 41° (NE) 3,523 9.6 -7.8°
